Current Weather Conditions by Major Hwy


I-84 West to East [Columbia River Gorge] 300 PM PDT SUN MAY 20 2018 ELEVA CITY SKY/WX TMP DP RH WIND PRES REMARKS 10 ASTORIA, OR MOSUNNY 60 50 69 NW15 30.08S 20 KELSO SUNNY 67 48 50 VRB5 30.04F 40 PORTLAND, OR MOSUNNY 68 45 43 NW5 30.03F 30 TROUTDALE, OR MOSUNNY 69 46 43 VRB6 30.02F 240 THE DALLES, OR MOSUNNY 75 46 35 NW20G29 29.90F 620 HERMISTON, OR PTSUNNY 78 53 41 VRB6 29.87F 1,480 PENDLETON, OR PTSUNNY 71 53 52 N6 29.89F 2,710 LA GRANDE LGT RAIN 57 54 88 MISG 29.94S 3,370 BAKER CITY CLOUDY 62 52 69 NW10 29.93F 2,190 ONTARIO PTSUNNY 78 51 38 N8 29.83F
I-90 West to East 300 PM PDT SUN MAY 20 2018 ELEVA CITY SKY/WX TMP DP RH WIND PRES REMARKS 30 SEATAC AIRPORT CLOUDY 65 53 65 S5 30.05F 1,730 ELLENSBURG PTSUNNY 74 49 41 NW17 29.90F 1,200 MOSES LAKE PTSUNNY 76 48 37 N6 29.87F 1,880 SPOKANE GEIGER MOSUNNY 72 45 37 CALM 29.90F
I-82 North West to South East 300 PM PDT SUN MAY 20 2018 ELEVA CITY SKY/WX TMP DP RH WIND PRES REMARKS 1,730 ELLENSBURG PTSUNNY 74 49 41 NW17 29.90F 1,050 YAKIMA TC MOCLDY 75 48 38 CALM 29.87S 720 360 PASCO PTSUNNY 79 51 37 NW8 29.86F 620 HERMISTON, OR PTSUNNY 78 53 41 VRB6 29.87F
Hwy97 North to South 300 PM PDT SUN MAY 20 2018 ELEVA CITY SKY/WX TMP DP RH WIND PRES REMARKS 850 OMAK MOSUNNY 74 48 39 SW5 29.88F 630 WENATCHEE MOSUNNY 75 43 31 VRB6 29.87F 1,730 ELLENSBURG PTSUNNY 74 49 41 NW17 29.90F 1,050 YAKIMA TC MOCLDY 75 48 38 CALM 29.87S 1,640 GOLDENDALE* MOSUNNY 75 46 35 NW20G29 29.90F *From Dallesport Airport Elev 240 3,080 REDMOND PTSUNNY 68 41 37 N8 29.94F 4,100 KLAMATH FALLS RAIN 55 47 74 SW6 29.95R
I-5 North to South 300 PM PDT SUN MAY 20 2018 ELEVA CITY SKY/WX TMP DP RH WIND PRES REMARKS 150 BELLINGHAM SUNNY 62 48 60 S10G18 30.05S 100 ARLINGTON CLOUDY 59 51 75 CALM 30.07F 610 EVERETT CLOUDY 58 51 78 N6 30.07F 30 SEATAC AIRPORT CLOUDY 65 53 65 S5 30.05F 200 OLYMPIA PTSUNNY 67 45 45 S9 30.03F 20 KELSO SUNNY 67 48 50 VRB5 30.04F 100 VANCOUVER PTSUNNY 67 49 52 SW8 30.02F 40 PORTLAND MOSUNNY 68 45 43 NW5 30.03F 200 SALEM PTSUNNY 68 46 45 N8 30.02F 360 EUGENE MOSUNNY 65 50 58 VRB5 30.03F 510 ROSEBURG PTSUNNY 64 47 53 CALM 30.02F 1,300 MEDFORD MOSUNNY 69 48 47 NW8 29.94F
Data from:
http://www.wrh.noaa.gov/sew/get.php?pil=RWR&sid=OR&version=0&format=printer
http://www.wrh.noaa.gov/sew/get.php?pil=RWR&sid=WA&version=0&format=printer

Current Observations

Washington State Current Weather Observations   …  Oregon State Current Weather Observation



48 Hour Forecast

Seattle  …  Vancouver  …  Portland
————————————————————————————————————————
Bend  …  Spokane  …  Richland  …  Pendleton  …  Blue Mountains I-84  …  Yakima
————————————————————————————————————————
Goldendale, Washington Higher Elevations  …  Dallesport Airport - Goldendale  …  Bingen - White Salmon - Hood River  …  Index


Top of Page